Meteo pe oră la Dziecmorowice

Astăzi, 4 Martie, Joi

Timp Temperatura Precipitaţii Vânt Presiune Umiditate
00:00 +3°C° 0 mm 3 m/s 727 mmHg 74%
01:00 +3°C° 0 mm 3 m/s 726 mmHg 76%
02:00 +3°C° 0 mm 3 m/s 726 mmHg 78%
03:00 +3°C° 0 mm 3 m/s 725 mmHg 81%
04:00 +2°C° 0 mm 3 m/s 725 mmHg 83%
05:00 +2°C° 0 mm 3 m/s 724 mmHg 85%
06:00 +2°C° 0 mm 3 m/s 724 mmHg 87%
07:00 +2°C° 0 mm 3 m/s 724 mmHg 89%
08:00 +3°C° 0 mm 3 m/s 724 mmHg 85%
09:00 +5°C° 0 mm 3 m/s 724 mmHg 80%
10:00 +7°C° 0 mm 4 m/s 724 mmHg 75%
11:00 +7°C° 0 mm 4 m/s 724 mmHg 74%
12:00 +8°C° 0 mm 4 m/s 723 mmHg 73%
13:00 +9°C° 0 mm 5 m/s 723 mmHg 72%
14:00 +8°C° 0.3 mm 4 m/s 722 mmHg 76%
15:00 +8°C° 0.3 mm 3 m/s 722 mmHg 80%
16:00 +8°C° 0.3 mm 3 m/s 721 mmHg 84%
17:00 +7°C° 0.6 mm 3 m/s 721 mmHg 87%
18:00 +5°C° 0.6 mm 3 m/s 721 mmHg 90%
19:00 +5°C° 0.6 mm 3 m/s 720 mmHg 92%
20:00 +4°C° 0.3 mm 3 m/s 721 mmHg 92%
21:00 +3°C° 0.3 mm 3 m/s 721 mmHg 91%
22:00 +1°C° 0.3 mm 4 m/s 721 mmHg 91%
23:00 +2°C° 0.2 mm 3 m/s 721 mmHg 92%

Mâine, 5 Martie, Vineri

Timp Temperatura Precipitaţii Vânt Presiune Umiditate
00:00 +1°C° 0.2 mm 3 m/s 721 mmHg 92%
01:00 0°C° 0.2 mm 3 m/s 722 mmHg 93%
02:00 0°C° 0.2 mm 3 m/s 722 mmHg 94%
03:00 0°C° 0.2 mm 3 m/s 722 mmHg 95%
04:00 -1°C° 0.2 mm 3 m/s 723 mmHg 95%
05:00 -2°C° 0.4 mm 4 m/s 723 mmHg 94%
06:00 -3°C° 0.4 mm 4 m/s 724 mmHg 94%
07:00 -4°C° 0.4 mm 4 m/s 724 mmHg 93%
08:00 -4°C° 0.2 mm 4 m/s 725 mmHg 88%
09:00 -3°C° 0.2 mm 4 m/s 725 mmHg 84%
10:00 -3°C° 0.2 mm 4 m/s 726 mmHg 79%
11:00 -3°C° 0 mm 4 m/s 726 mmHg 74%
12:00 -2°C° 0 mm 4 m/s 727 mmHg 68%
13:00 -1°C° 0 mm 4 m/s 727 mmHg 62%
14:00 -1°C° 0 mm 4 m/s 727 mmHg 60%
15:00 -1°C° 0 mm 4 m/s 727 mmHg 58%
16:00 0°C° 0 mm 3 m/s 727 mmHg 56%
17:00 -1°C° 0 mm 3 m/s 728 mmHg 61%
18:00 -2°C° 0 mm 2 m/s 728 mmHg 67%
19:00 -3°C° 0 mm 2 m/s 729 mmHg 72%
20:00 -3°C° 0 mm 2 m/s 729 mmHg 73%
21:00 -3°C° 0 mm 2 m/s 730 mmHg 74%
22:00 -3°C° 0 mm 2 m/s 731 mmHg 75%
23:00 -4°C° 0 mm 2 m/s 731 mmHg 75%

Poimâine, 6 Martie, Sâmbătă

Timp Temperatura Precipitaţii Vânt Presiune Umiditate
00:00 -4°C° 0 mm 2 m/s 731 mmHg 76%
01:00 -4°C° 0 mm 2 m/s 732 mmHg 77%
02:00 -4°C° 0 mm 2 m/s 732 mmHg 78%
03:00 -5°C° 0 mm 2 m/s 732 mmHg 78%
04:00 -5°C° 0 mm 2 m/s 732 mmHg 79%
05:00 -3°C° 0 mm 1 m/s 732 mmHg 79%
06:00 -3°C° 0 mm 1 m/s 733 mmHg 79%
07:00 -3°C° 0 mm 1 m/s 733 mmHg 79%
08:00 -2°C° 0 mm 1 m/s 733 mmHg 70%
09:00 -1°C° 0 mm 1 m/s 734 mmHg 61%
10:00 -1°C° 0 mm 2 m/s 734 mmHg 52%
11:00 -1°C° 0 mm 2 m/s 734 mmHg 48%
12:00 +1°C° 0 mm 2 m/s 734 mmHg 44%
13:00 +2°C° 0 mm 2 m/s 734 mmHg 40%
14:00 +2°C° 0 mm 2 m/s 733 mmHg 41%
15:00 +2°C° 0 mm 2 m/s 733 mmHg 42%
16:00 +2°C° 0 mm 2 m/s 732 mmHg 43%
17:00 +1°C° 0 mm 2 m/s 732 mmHg 49%
18:00 -2°C° 0 mm 2 m/s 732 mmHg 55%
19:00 -3°C° 0 mm 2 m/s 732 mmHg 60%
20:00 -3°C° 0 mm 2 m/s 731 mmHg 61%
21:00 -3°C° 0 mm 2 m/s 731 mmHg 62%
22:00 -4°C° 0 mm 2 m/s 731 mmHg 62%
23:00 -4°C° 0 mm 2 m/s 731 mmHg 62%

7 Martie, Duminică

Timp Temperatura Precipitaţii Vânt Presiune Umiditate
00:00 -4°C° 0 mm 2 m/s 731 mmHg 62%
01:00 -4°C° 0 mm 2 m/s 730 mmHg 62%
02:00 -4°C° 0 mm 2 m/s 730 mmHg 62%
03:00 -4°C° 0 mm 2 m/s 729 mmHg 63%
04:00 -4°C° 0 mm 2 m/s 729 mmHg 63%
05:00 -4°C° 0 mm 2 m/s 729 mmHg 63%
06:00 -4°C° 0 mm 2 m/s 728 mmHg 63%
07:00 -4°C° 0 mm 2 m/s 728 mmHg 63%
08:00 -2°C° 0 mm 3 m/s 728 mmHg 58%
09:00 -1°C° 0 mm 3 m/s 728 mmHg 54%
10:00 0°C° 0 mm 4 m/s 728 mmHg 49%
11:00 +1°C° 0 mm 4 m/s 728 mmHg 47%
12:00 +1°C° 0 mm 4 m/s 727 mmHg 45%
13:00 +3°C° 0 mm 4 m/s 727 mmHg 43%
14:00 +3°C° 0 mm 4 m/s 726 mmHg 46%
15:00 +3°C° 0 mm 4 m/s 726 mmHg 48%
16:00 +3°C° 0 mm 3 m/s 725 mmHg 51%
17:00 +1°C° 0 mm 3 m/s 725 mmHg 58%
18:00 +1°C° 0 mm 2 m/s 725 mmHg 66%
19:00 0°C° 0 mm 1 m/s 725 mmHg 74%
20:00 0°C° 0 mm 1 m/s 725 mmHg 75%
21:00 0°C° 0 mm 1 m/s 725 mmHg 76%
22:00 0°C° 0 mm 1 m/s 725 mmHg 78%
23:00 -1°C° 0 mm 1 m/s 725 mmHg 80%

8 Martie, Luni

Timp Temperatura Precipitaţii Vânt Presiune Umiditate
00:00 -1°C° 0 mm 1 m/s 724 mmHg 82%
01:00 -1°C° 0 mm 1 m/s 724 mmHg 84%
02:00 -1°C° 0 mm 1 m/s 724 mmHg 85%
03:00 -3°C° 0 mm 2 m/s 724 mmHg 87%
04:00 -3°C° 0 mm 2 m/s 724 mmHg 88%
05:00 -3°C° 0 mm 2 m/s 724 mmHg 88%
06:00 -1°C° 0 mm 1 m/s 724 mmHg 88%
07:00 -1°C° 0 mm 1 m/s 725 mmHg 88%
08:00 0°C° 0.1 mm 1 m/s 725 mmHg 86%
09:00 +1°C° 0.1 mm 1 m/s 725 mmHg 84%
10:00 -1°C° 0.1 mm 2 m/s 726 mmHg 82%
11:00 +1°C° 0.1 mm 2 m/s 726 mmHg 81%
12:00 +2°C° 0.1 mm 1 m/s 726 mmHg 80%
13:00 +3°C° 0.1 mm 1 m/s 726 mmHg 79%
14:00 +2°C° 0.1 mm 1 m/s 726 mmHg 80%
15:00 +2°C° 0.1 mm 1 m/s 726 mmHg 81%
16:00 +2°C° 0.1 mm 1 m/s 726 mmHg 81%
17:00 +1°C° 0.1 mm 1 m/s 726 mmHg 85%
18:00 +1°C° 0.1 mm 1 m/s 726 mmHg 89%
19:00 0°C° 0.1 mm 1 m/s 726 mmHg 93%
20:00 0°C° 0 mm 1 m/s 726 mmHg 93%
21:00 -1°C° 0 mm 1 m/s 727 mmHg 93%
22:00 -1°C° 0 mm 1 m/s 727 mmHg 93%
23:00 -1°C° 0 mm 1 m/s 727 mmHg 92%

9 Martie, Marţi

Timp Temperatura Precipitaţii Vânt Presiune Umiditate
00:00 -1°C° 0 mm 1 m/s 727 mmHg 91%
01:00 -1°C° 0 mm 1 m/s 727 mmHg 90%
02:00 -2°C° 0 mm 1 m/s 727 mmHg 90%
03:00 -2°C° 0 mm 1 m/s 726 mmHg 89%
04:00 -2°C° 0 mm 1 m/s 726 mmHg 89%
05:00 -2°C° 0 mm 1 m/s 726 mmHg 88%
06:00 -1°C° 0 mm 1 m/s 726 mmHg 87%
07:00 -1°C° 0 mm 1 m/s 727 mmHg 86%
08:00 0°C° 0 mm 1 m/s 727 mmHg 81%
09:00 +1°C° 0 mm 1 m/s 727 mmHg 77%
10:00 +2°C° 0 mm 1 m/s 727 mmHg 72%
11:00 +2°C° 0.1 mm 1 m/s 727 mmHg 70%
12:00 +3°C° 0.1 mm 1 m/s 727 mmHg 67%
13:00 +4°C° 0.1 mm 1 m/s 727 mmHg 64%
14:00 +3°C° 0.1 mm 1 m/s 727 mmHg 65%
15:00 +3°C° 0.1 mm 1 m/s 726 mmHg 66%
16:00 +3°C° 0.1 mm 1 m/s 726 mmHg 67%
17:00 +2°C° 0 mm 1 m/s 726 mmHg 72%
18:00 +1°C° 0 mm 1 m/s 726 mmHg 77%
19:00 0°C° 0 mm 1 m/s 726 mmHg 81%
20:00 0°C° 0 mm 1 m/s 726 mmHg 82%
21:00 -1°C° 0 mm 1 m/s 726 mmHg 83%
22:00 -1°C° 0 mm 1 m/s 726 mmHg 84%
23:00 -1°C° 0 mm 1 m/s 726 mmHg 83%
Arată mai mult

Formular de consimțământ

Meteoprog și furnizorii noștri de servicii pot stoca și accesa date personale, precum cookies, identificatori de dispozitiv sau alte tehnologii similare pe dispozitivul dumneavoastră și procesa astfel de date pentru a personaliza conținutul și reclamele, dar și pentru a oferi caracteristici de social media și pentru a analiza traficul.

  • Stocarea și/sau accesarea informațiilor pe dispozitivul dumneavoastră

    Cookies, identificatori de dispozitiv sau alte informații pot fi stocate sau accesate pe dispozitiv în scopurile indicate mai sus.

  • Reclame și conținut personalizat, evaluarea reclamelor și a conținutului, informații despre audiențe și dezvoltarea produselor

    Reclamele și conținutul pot fi personalizate pe baza unui profil. Pot fi adăugate date suplimentare pentru a personaliza mai bine reclamele și conținutul. Performanța reclamelor și conținutului poate fi măsurată. Pot fi obținute informații despre utilizatorii care au văzut reclamele și conținutul. Aceste date pot fi utilizate pentru a dezvolta sau îmbunătăți experiența utilizatorilor, sistemele și software-ul.

Dând clic pe ‘Sunt de acord’, permiteți utilizarea cookie-urilor menționate, a identificatorilor de dispozitiv, balizelor web sau altor tehnologii similare. Setările pot fi modificate din browser-ul dispozitivului dumneavoastră.

În anumite scopuri, interesele legitime pot prima asupra consimțământului. Puteți citi mai multe informații în acest sens în Politica privind Confidențialitatea Datelor și Cookie.